[[[{"header":{"parameterUnit":"kt","parameterCategory":2,"dx":1,"dy":1,"la1":30.253999710083008,"la2":30.299108505249023,"lo1":-89.0895004272461,"lo2":-89.04439544677734,"nx":28,"ny":28,"refTime":"2022-09-20T09:00:00:Z","depth":"0","parameterNumber":2,"parameterNumberName":"U-component_of_CURRENTS"},"data":[-0.1373,-0.1272,-0.1199,-0.109,-0.1052,-0.0995,-0.0981,-0.0962,-0.0952,-0.0921,-0.0883,-0.0932,-0.0981,-0.0828,-0.062,-0.0542,-0.0327,-0.0209,-0.0178,-0.065,-0.0716,-0.0779,-0.068,-0.0148,-0.0147,0.0426,0.0432,0.0436,-0.138,-0.1288,-0.1221,-0.114,-0.1105,-0.1106,-0.1108,-0.1102,-0.1135,-0.118,-0.1271,-0.1279,-0.1272,-0.1268,-0.1218,-0.1031,-0.0979,-0.0939,-0.0876,-0.0821,-0.1427,-0.1339,-0.0939,-0.0939,-0.0939,-0.0939,-0.094,-0.094,-0.1347,-0.1309,-0.1246,-0.1201,-0.118,-0.1156,-0.1154,-0.1202,-0.1257,-0.1349,-0.1485,-0.1522,-0.161,-0.1679,-0.1678,-0.1564,-0.1668,-0.1659,-0.1589,-0.1567,-0.1358,-0.1918,-0.1748,-0.175,-0.1752,-0.1753,-0.1755,0,-0.1345,-0.1303,-0.1291,-0.1244,-0.1226,-0.1243,-0.1284,-0.13,-0.143,-0.1503,-0.1617,-0.1701,-0.1792,-0.1847,-0.1927,-0.205,-0.2076,-0.2251,-0.2129,-0.1887,-0.1715,-0.1583,-0.2332,-0.2249,-0.2254,-0.2258,-0.226,-0.2262,-0.1338,-0.1318,-0.1299,-0.1282,-0.1289,-0.1326,-0.136,-0.1454,-0.1506,-0.1672,-0.1713,-0.1818,-0.1935,-0.2099,-0.2238,-0.2376,-0.238,-0.2367,-0.248,-0.2258,-0.2156,-0.2098,-0.1989,-0.2317,-0.231,-0.2304,-0.23,0,-0.1353,-0.1341,-0.1326,-0.1362,-0.1377,-0.1394,-0.1466,-0.1516,-0.1625,-0.1737,-0.1777,-0.1987,-0.2096,-0.229,-0.2524,-0.2652,-0.2624,-0.2809,-0.2585,-0.2543,-0.2327,-0.2239,-0.2033,-0.1888,-0.2725,-0.272,-0.2716,0,-0.1391,-0.1384,-0.1397,-0.1409,-0.1411,-0.1494,-0.1534,-0.1633,-0.1763,-0.1852,-0.2038,-0.2145,-0.2406,-0.2524,-0.2703,-0.2795,-0.2886,-0.2952,-0.2936,-0.2812,-0.2781,-0.2693,-0.2606,-0.32,-0.32,-0.3201,-0.3201,0,-0.1451,-0.147,-0.1434,-0.1465,-0.1565,-0.1568,-0.1637,-0.1809,-0.1875,-0.2043,-0.2097,-0.2321,-0.2419,-0.2598,-0.2778,-0.2824,-0.2951,-0.3033,-0.296,-0.2943,-0.2866,-0.2838,-0.2659,-0.3201,-0.3201,-0.3201,-0.3201,0,-0.1523,-0.1548,-0.152,-0.1577,-0.1597,-0.1631,-0.1766,-0.1843,-0.2041,-0.2109,-0.228,-0.2416,-0.2595,-0.2682,-0.2894,-0.2848,-0.2945,-0.303,-0.303,-0.2908,-0.287,-0.2674,-0.2621,-0.2468,-0.2985,-0.2984,-0.2983,0,-0.156,-0.1567,-0.1632,-0.1655,-0.1686,-0.1835,-0.188,-0.203,-0.2141,-0.2247,-0.2436,-0.2527,-0.2652,-0.2705,-0.282,-0.292,-0.299,-0.2962,-0.3045,-0.3047,-0.2842,-0.2826,-0.267,-0.2619,-0.297,-0.2971,-0.2972,0,-0.1629,-0.171,-0.1716,-0.1733,-0.1887,-0.196,-0.202,-0.2153,-0.2207,-0.2356,-0.2409,-0.2575,-0.2686,-0.2748,-0.2848,-0.2934,-0.2962,-0.2944,-0.2949,-0.289,-0.3024,-0.2829,-0.2819,-0.2984,-0.2987,-0.2989,-0.2962,0,-0.1724,-0.1755,-0.1761,-0.186,-0.1935,-0.1999,-0.2134,-0.223,-0.2298,-0.2401,-0.251,-0.2639,-0.2751,-0.2787,-0.2831,-0.293,-0.2896,-0.2936,-0.2947,-0.2972,-0.2952,-0.296,-0.2893,-0.2895,-0.2897,-0.2898,0,0,-0.1758,-0.1811,-0.1938,-0.1973,-0.201,-0.2189,-0.2211,-0.232,-0.2469,-0.2509,-0.2519,-0.2687,-0.2753,-0.2853,-0.2877,-0.2898,-0.2898,-0.2884,-0.2962,-0.2968,-0.2974,-0.2956,-0.2962,-0.29,-0.2901,-0.2901,-0.2902,0,-0.1821,-0.1908,-0.1916,-0.2008,-0.2121,-0.2222,-0.2242,-0.2398,-0.2466,-0.2527,-0.2601,-0.2691,-0.2736,-0.2835,-0.2873,-0.2905,-0.2911,-0.2904,-0.2904,-0.297,-0.2974,-0.2979,-0.2961,-0.2965,-0.2905,-0.2905,-0.2905,0,-0.1889,-0.1957,-0.1978,-0.2116,-0.2192,-0.2255,-0.2349,-0.2445,-0.2493,-0.258,-0.263,-0.27,-0.2776,-0.2828,-0.2852,-0.2862,-0.2926,-0.2908,-0.2904,-0.2937,-0.3008,-0.3013,-0.3018,-0.2954,-0.2953,-0.2953,0,0,-0.1926,-0.1971,-0.21,-0.2132,-0.217,-0.2305,-0.2363,-0.2459,-0.2549,-0.2602,-0.2654,-0.2716,-0.2767,-0.2791,-0.285,-0.2885,-0.2924,-0.2906,-0.2904,-0.2901,-0.2932,-0.3003,-0.3008,-0.295,-0.295,-0.295,0,0,-0.1947,-0.2063,-0.21,-0.2148,-0.2257,-0.2409,-0.2439,-0.252,-0.2624,-0.2621,-0.268,-0.2695,-0.2734,-0.2784,-0.2749,-0.285,-0.2872,-0.2879,-0.2786,-0.2784,-0.2782,-0.2801,-0.2783,0,0,0,0,0,-0.2025,-0.2039,-0.2069,-0.2087,-0.2254,-0.2382,-0.2413,-0.2524,-0.2541,-0.2608,-0.2656,-0.2673,-0.28,-0.277,-0.278,-0.278,-0.2922,-0.2927,-0.2932,-0.2823,-0.282,-0.2818,0,0,0,0,0,0,-0.2033,-0.2056,-0.2068,-0.2205,-0.2242,-0.2382,-0.2428,-0.2464,-0.2539,-0.2555,-0.2665,-0.2675,-0.2723,-0.2767,-0.2775,-0.2775,-0.278,-0.2924,-0.2928,-0.2932,-0.2822,-0.282,-0.2818,0,0,0,0,0,-0.2039,-0.2058,-0.2287,-0.2209,-0.2241,-0.2379,-0.243,-0.246,-0.2555,-0.2608,-0.2628,-0.2626,-0.2722,-0.2732,-0.2772,-0.277,-0.2774,-0.2778,-0.2927,-0.293,-0.2933,-0.2821,0,0,0,0,0,0,-0.2043,-0.2135,-0.2298,-0.2312,-0.2197,-0.2379,-0.2411,-0.2456,-0.2607,-0.2625,-0.2565,-0.2574,-0.2721,-0.2729,-0.2737,-0.2766,-0.277,-0.2773,-0.2775,-0.2929,-0.2932,-0.2934,0,0,0,0,0,0,-0.2123,-0.2147,-0.2307,-0.2285,-0.23,-0.2377,-0.2405,-0.2433,-0.2603,-0.2561,-0.2571,-0.2566,-0.2645,-0.2727,-0.2733,-0.2781,-0.2766,-0.2769,-0.2771,-0.2773,-0.2931,-0.2933,0,0,0,0,0,0,-0.2136,-0.2157,-0.2285,-0.2295,-0.2309,-0.25,-0.2402,-0.2544,-0.2659,-0.2552,-0.266,-0.266,-0.2637,-0.265,-0.2731,-0.2776,-0.278,-0.2766,-0.2768,-0.277,-0.2771,0,0,0,0,0,0,0,-0.2146,-0.1972,-0.2182,-0.2304,-0.2316,-0.2439,-0.2446,-0.2453,-0.266,-0.266,-0.266,-0.266,-0.2749,-0.2752,-0.2756,-0.2771,0,0,-0.2766,-0.2767,0,0,0,0,0,0,0,0,-0.1966,-0.1971,-0.2182,-0.2184,-0.2185,-0.2441,-0.2446,-0.2452,-0.266,-0.266,-0.266,-0.266,-0.275,-0.2753,-0.2755,0,0,0,0,0,0,0,0,0,0,0,0,0,0,0,-0.2183,-0.2184,0,-0.2441,-0.2446,-0.2451,-0.266,-0.266,-0.266,-0.266,-0.2751,-0.2753,-0.2755,0,0,0,0,0,0,0,0,0,0,0,0,0,0,0,0,0,0,0,0,0,0,0,0,0,0,0,0,0,0,0,0,0,0,0,0,0,0,0,0,0,0,0,0,0,0,0,0,0,0,0,0,0,0,0,0,0,0,0,0,0,0,0,0,0,0,0,0,0]}],[{"header":{"parameterUnit":"kt","parameterCategory":2,"dx":1,"dy":1,"la1":30.253999710083008,"la2":30.299108505249023,"lo1":-89.0895004272461,"lo2":-89.04439544677734,"nx":28,"ny":28,"refTime":"2022-09-20T09:00:00:Z","depth":"0","parameterNumber":3,"parameterNumberName":"V-component_of_CURRENTS"},"data":[-0.3207,-0.3251,-0.3298,-0.3349,-0.3387,-0.3397,-0.3384,-0.3339,-0.3319,-0.327,-0.3301,-0.3315,-0.3112,-0.2714,-0.2241,-0.2149,-0.1767,-0.1975,-0.1615,-0.2005,-0.2031,-0.2057,-0.2026,-0.1803,-0.1802,-0.0983,-0.0977,-0.0973,-0.3246,-0.3278,-0.3315,-0.3399,-0.3447,-0.348,-0.3485,-0.3461,-0.3423,-0.3399,-0.3351,-0.3343,-0.3138,-0.2949,-0.2734,-0.2505,-0.2331,-0.2376,-0.2302,-0.2033,-0.2562,-0.255,-0.2434,-0.2434,-0.2434,-0.2434,-0.2435,-0.2435,-0.3332,-0.334,-0.3406,-0.3441,-0.3489,-0.3527,-0.3513,-0.3529,-0.3508,-0.34,-0.3405,-0.3327,-0.324,-0.312,-0.2975,-0.2775,-0.2758,-0.2707,-0.2688,-0.2684,-0.2389,-0.3034,-0.2949,-0.2949,-0.2949,-0.2949,-0.295,0,-0.3398,-0.3435,-0.3466,-0.3509,-0.3536,-0.3571,-0.3571,-0.3543,-0.3542,-0.3493,-0.342,-0.3351,-0.3245,-0.3168,-0.3069,-0.3018,-0.281,-0.298,-0.277,-0.2718,-0.2738,-0.247,-0.3095,-0.2966,-0.2967,-0.2967,-0.2967,-0.2967,-0.3472,-0.3488,-0.3553,-0.3567,-0.3569,-0.3584,-0.3605,-0.3594,-0.358,-0.3495,-0.3459,-0.3363,-0.3283,-0.3162,-0.3123,-0.3044,-0.286,-0.2987,-0.3001,-0.2848,-0.2835,-0.2828,-0.258,-0.297,-0.297,-0.297,-0.2969,0,-0.349,-0.3526,-0.3571,-0.361,-0.3605,-0.3613,-0.3624,-0.3623,-0.3577,-0.3509,-0.3481,-0.3409,-0.3323,-0.325,-0.3142,-0.3127,-0.2934,-0.3028,-0.3068,-0.3082,-0.2908,-0.289,-0.269,-0.2387,-0.3005,-0.3004,-0.3004,0,-0.3507,-0.3529,-0.356,-0.3585,-0.3593,-0.366,-0.3659,-0.3635,-0.3597,-0.3545,-0.3496,-0.343,-0.3346,-0.3277,-0.3238,-0.3158,-0.3121,-0.312,-0.3131,-0.3133,-0.314,-0.2939,-0.2915,-0.3056,-0.3057,-0.3057,-0.3057,0,-0.3503,-0.3544,-0.3575,-0.3601,-0.366,-0.3679,-0.3691,-0.3674,-0.3683,-0.3597,-0.355,-0.3432,-0.3384,-0.3305,-0.3265,-0.329,-0.3152,-0.3186,-0.3165,-0.3171,-0.3121,-0.3126,-0.2835,-0.3058,-0.3058,-0.3058,-0.3058,0,-0.3511,-0.3518,-0.3561,-0.3632,-0.3627,-0.3661,-0.3666,-0.3725,-0.3673,-0.3663,-0.3558,-0.3526,-0.3422,-0.3437,-0.3312,-0.3362,-0.3331,-0.3309,-0.3307,-0.3296,-0.3366,-0.3302,-0.3248,-0.3055,-0.3348,-0.335,-0.3352,0,-0.3513,-0.3526,-0.3551,-0.3607,-0.3613,-0.3649,-0.3694,-0.3726,-0.3726,-0.3706,-0.3641,-0.3604,-0.3595,-0.3559,-0.3488,-0.3464,-0.3398,-0.3458,-0.3377,-0.3374,-0.3377,-0.3329,-0.3319,-0.3278,-0.3375,-0.3373,-0.3371,0,-0.3513,-0.3535,-0.3535,-0.356,-0.359,-0.3618,-0.3667,-0.3686,-0.3678,-0.3723,-0.3701,-0.3669,-0.3609,-0.3589,-0.3571,-0.3506,-0.3445,-0.3531,-0.3527,-0.35,-0.334,-0.3363,-0.335,-0.3438,-0.3435,-0.3432,-0.339,0,-0.3502,-0.3545,-0.3531,-0.3534,-0.3578,-0.3599,-0.3643,-0.3686,-0.3727,-0.3743,-0.3732,-0.3736,-0.3689,-0.3682,-0.3702,-0.3596,-0.3626,-0.3624,-0.3583,-0.3566,-0.3561,-0.3546,-0.3717,-0.3716,-0.3716,-0.3716,0,0,-0.3496,-0.3506,-0.351,-0.3515,-0.3544,-0.3565,-0.3594,-0.3636,-0.3736,-0.3739,-0.3778,-0.3752,-0.3756,-0.3688,-0.3687,-0.3722,-0.3708,-0.3662,-0.3602,-0.359,-0.3578,-0.357,-0.3556,-0.3716,-0.3716,-0.3716,-0.3716,0,-0.3455,-0.347,-0.3483,-0.3515,-0.3545,-0.3554,-0.3583,-0.3623,-0.3662,-0.3758,-0.374,-0.3726,-0.3782,-0.3718,-0.3704,-0.3733,-0.367,-0.373,-0.3673,-0.3605,-0.3593,-0.3582,-0.3572,-0.356,-0.3716,-0.3716,-0.3716,0,-0.3423,-0.3433,-0.3464,-0.351,-0.3507,-0.3528,-0.3549,-0.3591,-0.3649,-0.366,-0.3721,-0.3718,-0.3711,-0.3712,-0.3719,-0.3704,-0.3644,-0.3685,-0.3686,-0.3637,-0.3564,-0.3552,-0.3541,-0.3669,-0.3669,-0.3669,0,0,-0.3388,-0.3417,-0.3457,-0.3504,-0.3494,-0.3536,-0.3571,-0.36,-0.3642,-0.3664,-0.3686,-0.369,-0.3693,-0.3699,-0.3704,-0.3725,-0.3684,-0.3678,-0.3681,-0.3682,-0.3635,-0.3563,-0.3553,-0.3668,-0.3668,-0.3668,0,0,-0.337,-0.34,-0.3418,-0.3461,-0.3513,-0.3535,-0.3547,-0.3598,-0.3653,-0.3643,-0.3648,-0.3653,-0.3688,-0.3682,-0.3677,-0.3634,-0.3626,-0.363,-0.3624,-0.3627,-0.3629,-0.3565,-0.3584,0,0,0,0,0,-0.3364,-0.3395,-0.3412,-0.3425,-0.3479,-0.3532,-0.3542,-0.3565,-0.3569,-0.3602,-0.3639,-0.3584,-0.3658,-0.3655,-0.3659,-0.3604,-0.3656,-0.3658,-0.366,-0.366,-0.3663,-0.3665,0,0,0,0,0,0,-0.3369,-0.338,-0.3412,-0.3432,-0.3447,-0.3529,-0.3497,-0.3503,-0.3565,-0.3566,-0.3583,-0.3583,-0.3556,-0.3649,-0.3653,-0.36,-0.3582,-0.3657,-0.3658,-0.366,-0.3661,-0.3663,-0.3665,0,0,0,0,0,-0.3373,-0.3382,-0.3459,-0.3433,-0.3445,-0.349,-0.3495,-0.35,-0.3547,-0.3542,-0.3544,-0.3571,-0.3556,-0.3561,-0.3651,-0.3597,-0.3578,-0.358,-0.3658,-0.3659,-0.366,-0.3662,0,0,0,0,0,0,-0.3377,-0.3377,-0.3463,-0.3469,-0.3425,-0.3487,-0.3494,-0.3498,-0.3519,-0.3525,-0.3524,-0.3523,-0.3557,-0.3561,-0.3564,-0.3596,-0.3575,-0.3577,-0.3579,-0.3659,-0.366,-0.3661,0,0,0,0,0,0,-0.3374,-0.3381,-0.3465,-0.3454,-0.3459,-0.3484,-0.349,-0.3513,-0.3518,-0.3497,-0.3499,-0.3523,-0.3551,-0.356,-0.3563,-0.3599,-0.3573,-0.3575,-0.3576,-0.3577,-0.366,-0.3661,0,0,0,0,0,0,-0.3378,-0.3384,-0.3452,-0.3455,-0.3459,-0.3525,-0.3504,-0.3553,-0.3529,-0.3494,-0.3528,-0.3527,-0.3551,-0.3554,-0.3562,-0.3597,-0.3598,-0.3573,-0.3574,-0.3575,-0.3576,0,0,0,0,0,0,0,-0.3381,-0.3323,-0.3437,-0.3457,-0.346,-0.353,-0.3531,-0.3532,-0.3529,-0.3529,-0.3528,-0.3527,-0.3562,-0.3564,-0.3566,-0.3595,0,0,-0.3573,-0.3574,0,0,0,0,0,0,0,0,-0.3322,-0.3323,-0.3437,-0.3439,-0.3441,-0.3531,-0.3531,-0.3532,-0.3529,-0.3529,-0.3528,-0.3527,-0.3563,-0.3565,-0.3566,0,0,0,0,0,0,0,0,0,0,0,0,0,0,0,-0.3437,-0.3439,0,-0.3531,-0.3531,-0.3531,-0.3529,-0.3529,-0.3528,-0.3528,-0.3563,-0.3565,-0.3566,0,0,0,0,0,0,0,0,0,0,0,0,0,0,0,0,0,0,0,0,0,0,0,0,0,0,0,0,0,0,0,0,0,0,0,0,0,0,0,0,0,0,0,0,0,0,0,0,0,0,0,0,0,0,0,0,0,0,0,0,0,0,0,0,0,0,0,0,0]}]],[[{"header":{"parameterUnit":"kt","parameterCategory":2,"dx":1,"dy":1,"la1":30.253999710083008,"la2":30.299108505249023,"lo1":-89.0895004272461,"lo2":-89.04439544677734,"nx":28,"ny":28,"refTime":"2022-09-20T09:00:00:Z","depth":"2","parameterNumber":2,"parameterNumberName":"U-component_of_CURRENTS"},"data":[-0.2405,-0.2356,-0.2372,-0.2383,-0.2402,-0.2405,-0.2454,-0.242,-0.2326,-0.2104,-0.1853,-0.1713,-0.1457,-0.1074,-0.0831,-0.0605,-0.07,-0.0503,-0.0762,-0.1009,-0.105,-0.1022,-0.1125,0,0,0,0,0,-0.249,-0.2488,-0.2473,-0.2505,-0.2533,-0.2567,-0.2671,-0.2671,-0.271,-0.2567,-0.2433,-0.192,-0.162,-0.1307,-0.0849,-0.0656,-0.0698,-0.0559,-0.0717,-0.0758,-0.0797,-0.0838,-0.038,-0.0379,-0.0379,-0.0378,0,0,-0.2667,-0.2626,-0.2636,-0.2628,-0.2658,-0.2733,-0.2746,-0.2831,-0.2863,-0.2776,-0.2727,-0.2435,-0.2142,-0.1491,-0.1252,-0.0964,-0.1067,-0.099,-0.1014,-0.1042,-0.1083,-0.1088,-0.0697,-0.0699,-0.07,-0.0701,-0.0702,0,-0.2823,-0.2826,-0.2812,-0.2811,-0.2817,-0.2848,-0.2878,-0.2917,-0.2965,-0.2926,-0.2846,-0.2726,-0.2292,-0.1965,-0.1556,-0.1384,-0.1441,-0.1269,-0.1589,-0.1534,-0.1548,-0.1569,-0.1614,-0.124,-0.1244,-0.1248,-0.125,-0.1252,-0.302,-0.2978,-0.2997,-0.2991,-0.2989,-0.2975,-0.2979,-0.3038,-0.3037,-0.296,-0.2919,-0.27,-0.2567,-0.2169,-0.1932,-0.1656,-0.1784,-0.1388,-0.1504,-0.185,-0.1862,-0.1899,-0.1933,-0.1302,-0.1295,-0.129,-0.1286,0,-0.3128,-0.3159,-0.3111,-0.3134,-0.3145,-0.3095,-0.3132,-0.3102,-0.3091,-0.3016,-0.2991,-0.29,-0.2692,-0.2551,-0.2326,-0.2225,-0.2029,-0.1919,-0.1857,-0.1823,-0.1954,-0.1981,-0.1602,-0.1594,-0.1588,-0.1582,-0.1578,0,-0.3294,-0.3245,-0.3294,-0.3256,-0.321,-0.3251,-0.3185,-0.3189,-0.316,-0.3104,-0.3074,-0.2997,-0.2896,-0.2732,-0.2649,-0.2379,-0.2409,-0.226,-0.223,-0.2191,-0.218,-0.2517,-0.2538,-0.2366,-0.2368,-0.237,-0.2372,0,-0.3415,-0.3402,-0.3348,-0.3344,-0.3359,-0.3337,-0.3337,-0.3295,-0.3272,-0.3195,-0.3153,-0.3046,-0.2969,-0.2852,-0.2737,-0.281,-0.2495,-0.2591,-0.2353,-0.2344,-0.2179,-0.2162,-0.2375,-0.2376,-0.2376,-0.2377,-0.2378,0,-0.3534,-0.3528,-0.3449,-0.3485,-0.3475,-0.3429,-0.34,-0.3358,-0.3296,-0.3277,-0.3211,-0.3169,-0.3077,-0.3112,-0.2914,-0.3011,-0.2903,-0.2846,-0.2834,-0.2669,-0.2726,-0.2424,-0.2206,-0.2725,-0.2729,-0.2733,-0.2736,0,-0.3665,-0.36,-0.3637,-0.3565,-0.3548,-0.3587,-0.3535,-0.3505,-0.3469,-0.3388,-0.3361,-0.3265,-0.3293,-0.3264,-0.3203,-0.3131,-0.3025,-0.3176,-0.2914,-0.2904,-0.2829,-0.2659,-0.2568,-0.2278,-0.2783,-0.2778,-0.2774,0,-0.3774,-0.3802,-0.378,-0.3773,-0.3754,-0.3739,-0.3682,-0.3643,-0.3598,-0.3522,-0.3441,-0.3354,-0.3341,-0.3294,-0.3296,-0.3235,-0.31,-0.323,-0.3224,-0.3135,-0.2862,-0.2739,-0.2696,-0.3125,-0.3121,-0.3117,-0.2811,0,-0.3915,-0.3897,-0.3874,-0.3839,-0.3824,-0.3789,-0.3789,-0.3749,-0.3722,-0.3689,-0.3578,-0.3518,-0.3421,-0.3415,-0.3408,-0.3302,-0.3269,-0.3303,-0.3326,-0.3256,-0.3129,-0.31,-0.343,-0.3429,-0.3429,-0.3428,0,0,-0.4013,-0.3994,-0.4032,-0.399,-0.3977,-0.3997,-0.3948,-0.3918,-0.3841,-0.3808,-0.3797,-0.3618,-0.3569,-0.3482,-0.3462,-0.3433,-0.3358,-0.3429,-0.3295,-0.3281,-0.3268,-0.3145,-0.3118,-0.3427,-0.3427,-0.3427,-0.3427,0,-0.4072,-0.4092,-0.4055,-0.4046,-0.4027,-0.4028,-0.4016,-0.3989,-0.3957,-0.3852,-0.3826,-0.3754,-0.3609,-0.3571,-0.3534,-0.3439,-0.3384,-0.3414,-0.3383,-0.3296,-0.3282,-0.327,-0.3147,-0.3123,-0.3425,-0.3425,-0.3425,0,-0.4146,-0.4157,-0.415,-0.4145,-0.4125,-0.409,-0.4125,-0.4089,-0.4041,-0.401,-0.3882,-0.3831,-0.3751,-0.3651,-0.3593,-0.3607,-0.3409,-0.3491,-0.3491,-0.3445,-0.3353,-0.3337,-0.3324,-0.3503,-0.3503,-0.3504,0,0,-0.4177,-0.417,-0.4187,-0.4157,-0.4155,-0.414,-0.412,-0.4111,-0.4062,-0.4028,-0.3952,-0.3864,-0.3787,-0.3735,-0.3643,-0.3548,-0.3475,-0.3506,-0.3503,-0.35,-0.3455,-0.3361,-0.3346,-0.3507,-0.3507,-0.3508,0,0,-0.4191,-0.4221,-0.4216,-0.4202,-0.4182,-0.4178,-0.414,-0.4137,-0.4055,-0.4036,-0.3982,-0.3955,-0.3834,-0.3784,-0.3833,-0.3664,-0.3671,-0.3659,-0.3723,-0.3717,-0.3713,-0.3686,-0.3832,0,0,0,0,0,-0.4243,-0.4227,-0.4222,-0.4221,-0.4203,-0.4183,-0.4175,-0.4154,-0.4152,-0.4116,-0.4043,-0.4028,-0.3798,-0.384,-0.3814,-0.3782,-0.3548,-0.3541,-0.3534,-0.359,-0.3585,-0.358,0,0,0,0,0,0,-0.4243,-0.4244,-0.4222,-0.4226,-0.4222,-0.4184,-0.4198,-0.419,-0.4154,-0.415,-0.4044,-0.4026,-0.3987,-0.3851,-0.3827,-0.3799,-0.384,-0.3545,-0.3539,-0.3533,-0.3588,-0.3584,-0.358,0,0,0,0,0,-0.4243,-0.4244,-0.4226,-0.4224,-0.422,-0.4195,-0.4197,-0.4191,-0.4147,-0.4084,-0.4066,-0.4131,-0.3989,-0.3963,-0.3837,-0.3811,-0.3856,-0.3847,-0.3541,-0.3536,-0.3532,-0.3586,0,0,0,0,0,0,-0.4243,-0.4219,-0.4224,-0.4221,-0.423,-0.4194,-0.4189,-0.4192,-0.4079,-0.4065,-0.417,-0.4169,-0.3989,-0.3969,-0.395,-0.3818,-0.3869,-0.386,-0.3855,-0.3537,-0.3534,-0.353,0,0,0,0,0,0,-0.4219,-0.4217,-0.4222,-0.4231,-0.4228,-0.4193,-0.4189,-0.41,-0.4074,-0.4168,-0.4166,-0.417,-0.3994,-0.3973,-0.3958,-0.3822,-0.3879,-0.387,-0.3865,-0.3861,-0.3534,-0.3531,0,0,0,0,0,0,-0.4217,-0.4215,-0.4231,-0.4229,-0.4226,-0.4185,-0.4108,-0.407,-0.4147,-0.4169,-0.4148,-0.4148,-0.3998,-0.3983,-0.3964,-0.3835,-0.3825,-0.3878,-0.3873,-0.3869,-0.3866,0,0,0,0,0,0,0,-0.4215,-0.4242,-0.4251,-0.4227,-0.4225,-0.4196,-0.4194,-0.4192,-0.4147,-0.4148,-0.4148,-0.4148,-0.3926,-0.3917,-0.3908,-0.3845,0,0,-0.3879,-0.3875,0,0,0,0,0,0,0,0,-0.4241,-0.4242,-0.4251,-0.4251,-0.4251,-0.4195,-0.4194,-0.4192,-0.4147,-0.4148,-0.4148,-0.4148,-0.3923,-0.3916,-0.3909,0,0,0,0,0,0,0,0,0,0,0,0,0,0,0,-0.4251,-0.4251,0,-0.4195,-0.4194,-0.4193,-0.4148,-0.4148,-0.4148,-0.4148,-0.3921,-0.3915,-0.3909,0,0,0,0,0,0,0,0,0,0,0,0,0,0,0,0,0,0,0,0,0,0,0,0,0,0,0,0,0,0,0,0,0,0,0,0,0,0,0,0,0,0,0,0,0,0,0,0,0,0,0,0,0,0,0,0,0,0,0,0,0,0,0,0,0,0,0,0,0]}],[{"header":{"parameterUnit":"kt","parameterCategory":2,"dx":1,"dy":1,"la1":30.253999710083008,"la2":30.299108505249023,"lo1":-89.0895004272461,"lo2":-89.04439544677734,"nx":28,"ny":28,"refTime":"2022-09-20T09:00:00:Z","depth":"2","parameterNumber":3,"parameterNumberName":"V-component_of_CURRENTS"},"data":[0.1329,0.1181,0.109,0.0829,0.0707,0.0496,0.039,0.0124,0.0078,-0.0105,0.0093,0.0163,0.0751,0.1018,0.119,0.1491,0.1324,0.137,0.1096,0.1378,0.1361,0.153,0.1692,0,0,0,0,0,0.1358,0.1257,0.1116,0.0911,0.077,0.0738,0.0574,0.0411,0.0207,0.0207,0.0058,0.0272,0.0571,0.0837,0.121,0.1218,0.1227,0.1204,0.1457,0.145,0.1441,0.1542,0.1527,0.1524,0.1522,0.152,0,0,0.1388,0.1313,0.1159,0.1012,0.0894,0.0764,0.0652,0.0548,0.0428,0.0301,0.0313,0.0343,0.0581,0.0671,0.0702,0.0871,0.0882,0.1132,0.1139,0.114,0.122,0.1243,0.1124,0.112,0.1118,0.1115,0.1113,0,0.1385,0.1315,0.1233,0.1062,0.0954,0.0857,0.076,0.0707,0.0693,0.063,0.056,0.0496,0.0503,0.0677,0.0683,0.0714,0.0998,0.1004,0.0752,0.1497,0.1532,0.1576,0.1587,0.1454,0.1452,0.1451,0.145,0.145,0.1365,0.1312,0.1173,0.1098,0.1044,0.0948,0.0892,0.0875,0.0844,0.0832,0.0806,0.0758,0.0706,0.0633,0.0745,0.0723,0.0818,0.098,0.1175,0.1002,0.1039,0.1066,0.1091,0.1433,0.1435,0.1437,0.1438,0,0.1336,0.1281,0.1214,0.1128,0.1088,0.1039,0.0969,0.0939,0.0951,0.0912,0.0901,0.0959,0.0914,0.0955,0.0964,0.1018,0.1001,0.099,0.1266,0.1306,0.1104,0.1124,0.0845,0.084,0.0836,0.0832,0.0829,0,0.1315,0.1285,0.119,0.1162,0.11,0.1108,0.1062,0.1087,0.108,0.1062,0.1132,0.1116,0.1195,0.1168,0.1243,0.1195,0.1197,0.1278,0.1285,0.1553,0.1571,0.1565,0.1591,0.136,0.1362,0.1363,0.1365,0,0.1347,0.1265,0.1228,0.1214,0.1194,0.1181,0.1183,0.1224,0.124,0.1239,0.123,0.1257,0.128,0.1277,0.1388,0.1454,0.1323,0.1447,0.1373,0.1368,0.1609,0.163,0.1367,0.1367,0.1367,0.1368,0.1369,0,0.136,0.1311,0.1254,0.1238,0.1232,0.1214,0.1255,0.1279,0.1314,0.1356,0.1379,0.1455,0.1492,0.1587,0.1584,0.1625,0.165,0.1692,0.1686,0.1656,0.1753,0.1798,0.1671,0.1656,0.1659,0.1661,0.1664,0,0.143,0.1344,0.1343,0.1303,0.1277,0.134,0.1359,0.1413,0.1472,0.148,0.1596,0.1659,0.1785,0.1829,0.182,0.1922,0.1856,0.1966,0.1877,0.1874,0.1775,0.1606,0.188,0.171,0.1699,0.1695,0.1693,0,0.1485,0.1423,0.1412,0.1393,0.1418,0.1429,0.1455,0.1511,0.152,0.1592,0.1599,0.1801,0.1842,0.1937,0.2066,0.2047,0.192,0.2092,0.2094,0.1965,0.1744,0.1666,0.1635,0.1936,0.1932,0.1929,0.1721,0,0.1514,0.1487,0.1462,0.1438,0.1462,0.1463,0.1524,0.1555,0.1628,0.1687,0.1773,0.1915,0.203,0.2117,0.222,0.2219,0.2202,0.2275,0.2296,0.2221,0.2147,0.2124,0.2438,0.2441,0.2443,0.2445,0,0,0.1594,0.1551,0.1571,0.1531,0.1553,0.1632,0.1621,0.1673,0.1768,0.1802,0.184,0.2041,0.2191,0.2291,0.2305,0.2384,0.2327,0.2384,0.229,0.2272,0.2256,0.2179,0.2154,0.245,0.2451,0.2452,0.2453,0,0.16,0.1606,0.1567,0.158,0.161,0.1662,0.1664,0.1735,0.179,0.1844,0.1966,0.2058,0.2216,0.2323,0.2406,0.2406,0.2439,0.2469,0.2359,0.2314,0.2293,0.2274,0.2194,0.217,0.2459,0.2458,0.2458,0,0.1643,0.1649,0.1645,0.1664,0.1701,0.1702,0.1789,0.1817,0.1848,0.1982,0.2039,0.2147,0.2305,0.2383,0.2435,0.2459,0.2488,0.2561,0.2552,0.2526,0.2482,0.2459,0.2439,0.2685,0.2685,0.2685,0,0,0.165,0.163,0.1678,0.1674,0.1678,0.1765,0.1797,0.185,0.1924,0.1961,0.2061,0.218,0.2294,0.2351,0.2458,0.2524,0.2511,0.258,0.257,0.256,0.2529,0.2483,0.2463,0.2684,0.2684,0.2684,0,0,0.1674,0.1695,0.1719,0.1706,0.1752,0.1842,0.1852,0.1915,0.1992,0.2004,0.2142,0.2175,0.2266,0.2355,0.2329,0.2496,0.2552,0.2559,0.2412,0.2401,0.2391,0.2324,0.2456,0,0,0,0,0,0.1709,0.1682,0.1702,0.1708,0.1777,0.182,0.1837,0.1921,0.1967,0.1974,0.2062,0.2162,0.2369,0.2347,0.238,0.2416,0.2678,0.2679,0.268,0.2511,0.2498,0.2487,0,0,0,0,0,0,0.1711,0.1715,0.1704,0.1781,0.1799,0.1821,0.1894,0.1918,0.1967,0.1979,0.2137,0.2166,0.2257,0.234,0.2368,0.24,0.2447,0.2679,0.2679,0.268,0.2507,0.2496,0.2486,0,0,0,0,0,0.1714,0.1717,0.1792,0.1785,0.18,0.1903,0.1895,0.1916,0.1965,0.2102,0.2132,0.2025,0.2253,0.2286,0.2358,0.2384,0.2429,0.2438,0.2679,0.268,0.268,0.2501,0,0,0,0,0,0,0.1716,0.1755,0.1799,0.1809,0.1794,0.1906,0.1921,0.1913,0.2089,0.2115,0.1996,0.2003,0.2251,0.2276,0.23,0.2372,0.2414,0.2424,0.243,0.268,0.268,0.2681,0,0,0,0,0,0,0.1754,0.1762,0.1804,0.181,0.1822,0.1907,0.192,0.2015,0.2092,0.1975,0.1985,0.1998,0.2236,0.227,0.2289,0.2434,0.2403,0.2412,0.2419,0.2423,0.268,0.2681,0,0,0,0,0,0,0.176,0.1768,0.1808,0.1817,0.1828,0.1952,0.1999,0.2079,0.2045,0.1968,0.2049,0.2051,0.2229,0.2249,0.2281,0.2416,0.2429,0.2403,0.241,0.2414,0.2417,0,0,0,0,0,0,0,0.1766,0.1681,0.1733,0.1823,0.1833,0.1902,0.1906,0.1909,0.2045,0.2047,0.2049,0.205,0.2349,0.2359,0.237,0.2402,0,0,0.2402,0.2407,0,0,0,0,0,0,0,0,0.1681,0.1681,0.1733,0.1735,0.1737,0.1903,0.1906,0.1908,0.2046,0.2047,0.2048,0.205,0.2352,0.236,0.2369,0,0,0,0,0,0,0,0,0,0,0,0,0,0,0,0.1733,0.1735,0,0.1903,0.1906,0.1908,0.2046,0.2047,0.2048,0.2049,0.2354,0.2361,0.2368,0,0,0,0,0,0,0,0,0,0,0,0,0,0,0,0,0,0,0,0,0,0,0,0,0,0,0,0,0,0,0,0,0,0,0,0,0,0,0,0,0,0,0,0,0,0,0,0,0,0,0,0,0,0,0,0,0,0,0,0,0,0,0,0,0,0,0,0,0]}]],[[{"header":{"parameterUnit":"kt","parameterCategory":2,"dx":1,"dy":1,"la1":30.253999710083008,"la2":30.299108505249023,"lo1":-89.0895004272461,"lo2":-89.04439544677734,"nx":28,"ny":28,"refTime":"2022-09-20T09:00:00:Z","depth":"4","parameterNumber":2,"parameterNumberName":"U-component_of_CURRENTS"},"data":[-0.1216,-0.1202,-0.1163,-0.0987,-0.0902,-0.084,-0.0883,-0.1006,-0.0983,-0.1157,-0.1079,-0.1205,-0.1096,-0.1231,-0.1031,-0.1035,-0.1296,-0.111,-0.1105,-0.1651,-0.1692,-0.1728,-0.1637,0,0,0,0,0,-0.1267,-0.1226,-0.1198,-0.1141,-0.1107,-0.1082,-0.1163,-0.1249,-0.1413,-0.1315,-0.1414,-0.1325,-0.1228,-0.1239,-0.1087,-0.1268,-0.1438,-0.1093,-0.1554,-0.1677,-0.1722,-0.1618,0,0,0,0,0,0,-0.1337,-0.1321,-0.133,-0.1302,-0.1282,-0.1219,-0.1289,-0.1299,-0.1348,-0.1543,-0.1503,-0.1524,-0.161,-0.1471,-0.1482,-0.1425,-0.1426,-0.1501,-0.1552,-0.1596,-0.1479,-0.1309,-0.0944,0,0,0,0,0,-0.1377,-0.1416,-0.1438,-0.1407,-0.1418,-0.1417,-0.1478,-0.1494,-0.1659,-0.1788,-0.1754,-0.1729,-0.1655,-0.168,-0.1643,-0.1698,-0.2113,-0.1973,-0.2,-0.2072,-0.1984,-0.1981,-0.2004,-0.1893,-0.1899,-0.1903,-0.1905,0,-0.1458,-0.1452,-0.1513,-0.1507,-0.1543,-0.1604,-0.1624,-0.1774,-0.1814,-0.1963,-0.1968,-0.1985,-0.2047,-0.1912,-0.2065,-0.2073,-0.207,-0.209,-0.2167,-0.2058,-0.204,-0.2054,-0.2064,-0.1941,-0.1938,-0.1935,-0.1932,0,-0.1504,-0.153,-0.1552,-0.163,-0.1651,-0.1693,-0.1808,-0.1843,-0.1986,-0.2054,-0.2095,-0.2236,-0.2236,-0.2366,-0.2478,-0.2465,-0.2454,-0.2363,-0.269,-0.2682,-0.2132,-0.2128,-0.2001,-0.1988,-0.1976,-0.1967,-0.1959,0,-0.1566,-0.159,-0.1637,-0.1648,-0.1685,-0.1793,-0.1864,-0.1958,-0.2079,-0.2139,-0.2295,-0.2329,-0.2548,-0.2602,-0.2675,-0.2568,-0.2769,-0.2484,-0.2449,-0.2831,-0.2825,-0.2842,-0.2836,-0.2891,-0.2892,-0.2892,-0.2892,0,-0.162,-0.1663,-0.1667,-0.1692,-0.1779,-0.1836,-0.1901,-0.2036,-0.2094,-0.2242,-0.2295,-0.2467,-0.2536,-0.2634,-0.2699,-0.2729,-0.2784,-0.2837,-0.2516,-0.249,-0.2842,-0.2836,-0.2893,-0.2893,-0.2893,-0.2893,-0.2893,0,-0.1683,-0.169,-0.1701,-0.1784,-0.1809,-0.1845,-0.1965,-0.202,-0.216,-0.2241,-0.2375,-0.2449,-0.2584,-0.2608,-0.274,-0.2724,-0.2739,-0.277,-0.2769,-0.2442,-0.2394,-0.2671,-0.272,-0.2719,-0.2718,-0.2718,-0.2717,0,-0.1708,-0.1713,-0.1767,-0.18,-0.1815,-0.1908,-0.1961,-0.2052,-0.2137,-0.2235,-0.2363,-0.2446,-0.2505,-0.2561,-0.2646,-0.269,-0.273,-0.2713,-0.2746,-0.2746,-0.2404,-0.2371,-0.2757,-0.2707,-0.2708,-0.2709,-0.271,0,-0.1735,-0.1787,-0.1799,-0.181,-0.1881,-0.1919,-0.198,-0.2056,-0.2105,-0.2231,-0.231,-0.2427,-0.2505,-0.2546,-0.2599,-0.2672,-0.2707,-0.2672,-0.2674,-0.2627,-0.2764,-0.2401,-0.2372,-0.2746,-0.2748,-0.275,-0.2703,0,-0.1761,-0.1785,-0.181,-0.1826,-0.188,-0.1919,-0.1975,-0.2045,-0.2105,-0.2163,-0.2282,-0.2373,-0.2476,-0.2509,-0.2523,-0.2615,-0.2581,-0.2607,-0.2623,-0.2667,-0.2635,-0.2641,-0.2575,-0.2575,-0.2575,-0.2575,0,0,-0.1764,-0.1769,-0.1826,-0.1843,-0.1881,-0.193,-0.1949,-0.1998,-0.2094,-0.215,-0.2168,-0.2329,-0.2386,-0.2473,-0.2496,-0.2526,-0.2526,-0.2559,-0.2644,-0.2651,-0.2659,-0.2631,-0.2637,-0.2575,-0.2575,-0.2575,-0.2575,0,-0.1752,-0.1794,-0.1807,-0.1843,-0.19,-0.1929,-0.1939,-0.2017,-0.2063,-0.2139,-0.2168,-0.2255,-0.2359,-0.2419,-0.245,-0.2517,-0.2527,-0.2537,-0.2588,-0.2642,-0.2649,-0.2656,-0.2631,-0.2635,-0.2575,-0.2575,-0.2575,0,-0.1739,-0.1759,-0.1778,-0.182,-0.1865,-0.189,-0.1919,-0.1986,-0.2008,-0.2067,-0.2157,-0.2208,-0.2266,-0.2356,-0.2401,-0.2418,-0.2538,-0.2521,-0.2523,-0.2529,-0.2584,-0.2593,-0.26,-0.2499,-0.2498,-0.2498,0,0,-0.1725,-0.175,-0.1785,-0.1816,-0.1843,-0.1893,-0.1936,-0.1965,-0.2024,-0.2057,-0.2129,-0.2204,-0.2247,-0.2309,-0.236,-0.2464,-0.2472,-0.2509,-0.2513,-0.2516,-0.2523,-0.2579,-0.2587,-0.2496,-0.2496,-0.2496,0,0,-0.1721,-0.1756,-0.1754,-0.1795,-0.1833,-0.1899,-0.1957,-0.1972,-0.2045,-0.2063,-0.2116,-0.2137,-0.2211,-0.2268,-0.2235,-0.2386,-0.2374,-0.2383,-0.2356,-0.2362,-0.2365,-0.2354,-0.2262,0,0,0,0,0,-0.1711,-0.1744,-0.1741,-0.1752,-0.1828,-0.1886,-0.1905,-0.1966,-0.1976,-0.2005,-0.2066,-0.2092,-0.2266,-0.2237,-0.2259,-0.2306,-0.2471,-0.2476,-0.248,-0.2466,-0.2471,-0.2475,0,0,0,0,0,0,-0.1715,-0.1723,-0.1742,-0.1797,-0.1817,-0.1885,-0.1901,-0.1919,-0.1975,-0.198,-0.2079,-0.2095,-0.214,-0.223,-0.2249,-0.2293,-0.2256,-0.2473,-0.2477,-0.248,-0.2468,-0.2472,-0.2475,0,0,0,0,0,-0.1719,-0.1726,-0.1817,-0.1801,-0.1818,-0.1905,-0.19,-0.1916,-0.1963,-0.2046,-0.2063,-0.2007,-0.2138,-0.2159,-0.2242,-0.2283,-0.2243,-0.225,-0.2475,-0.2478,-0.2481,-0.247,0,0,0,0,0,0,-0.1722,-0.1754,-0.1824,-0.1835,-0.1791,-0.1904,-0.1916,-0.1912,-0.2027,-0.2044,-0.1975,-0.1977,-0.2138,-0.2154,-0.2169,-0.2277,-0.2233,-0.224,-0.2244,-0.2478,-0.248,-0.2482,0,0,0,0,0,0,-0.1752,-0.1761,-0.183,-0.1814,-0.1824,-0.1903,-0.1914,-0.1986,-0.2027,-0.1949,-0.1955,-0.1975,-0.2115,-0.2151,-0.2163,-0.2275,-0.2225,-0.2231,-0.2236,-0.2239,-0.2479,-0.2481,0,0,0,0,0,0,-0.1759,-0.1767,-0.1812,-0.1819,-0.1827,-0.1952,-0.1971,-0.2046,-0.2013,-0.1943,-0.2012,-0.2011,-0.2111,-0.2125,-0.2158,-0.2265,-0.2272,-0.2225,-0.2229,-0.2233,-0.2235,0,0,0,0,0,0,0,-0.1764,-0.1673,-0.1761,-0.1823,-0.183,-0.1934,-0.1937,-0.194,-0.2013,-0.2012,-0.2012,-0.2011,-0.2186,-0.2194,-0.2201,-0.2256,0,0,-0.2224,-0.2227,0,0,0,0,0,0,0,0,-0.1673,-0.1673,-0.1762,-0.1764,-0.1766,-0.1934,-0.1937,-0.1939,-0.2012,-0.2012,-0.2012,-0.2011,-0.2188,-0.2194,-0.22,0,0,0,0,0,0,0,0,0,0,0,0,0,0,0,-0.1762,-0.1764,0,-0.1934,-0.1936,-0.1938,-0.2012,-0.2012,-0.2012,-0.2012,-0.219,-0.2195,-0.22,0,0,0,0,0,0,0,0,0,0,0,0,0,0,0,0,0,0,0,0,0,0,0,0,0,0,0,0,0,0,0,0,0,0,0,0,0,0,0,0,0,0,0,0,0,0,0,0,0,0,0,0,0,0,0,0,0,0,0,0,0,0,0,0,0,0,0,0,0]}],[{"header":{"parameterUnit":"kt","parameterCategory":2,"dx":1,"dy":1,"la1":30.253999710083008,"la2":30.299108505249023,"lo1":-89.0895004272461,"lo2":-89.04439544677734,"nx":28,"ny":28,"refTime":"2022-09-20T09:00:00:Z","depth":"4","parameterNumber":3,"parameterNumberName":"V-component_of_CURRENTS"},"data":[-0.1146,-0.1234,-0.1264,-0.1387,-0.1473,-0.1602,-0.1657,-0.1666,-0.1568,-0.1524,-0.1329,-0.1226,-0.0888,-0.1085,-0.0555,-0.0494,-0.0404,-0.0118,-0.0112,-0.0018,-0.0027,-0.0036,-0.0111,0,0,0,0,0,-0.1121,-0.1177,-0.1278,-0.141,-0.1529,-0.1596,-0.1679,-0.1702,-0.1694,-0.1572,-0.1523,-0.1309,-0.0953,-0.0833,-0.0568,-0.0589,-0.0294,-0.0275,-0.02,-0.0024,-0.0034,-0.0103,0,0,0,0,0,0,-0.1095,-0.1162,-0.1259,-0.1374,-0.1505,-0.1592,-0.1644,-0.1625,-0.163,-0.1566,-0.1516,-0.1317,-0.1214,-0.0865,-0.0626,-0.0388,-0.0298,-0.0209,-0.0209,-0.0217,-0.0296,-0.0391,-0.0218,0,0,0,0,0,-0.1064,-0.1118,-0.1205,-0.134,-0.1444,-0.1554,-0.1631,-0.1639,-0.1652,-0.1663,-0.1526,-0.1353,-0.1147,-0.0889,-0.0631,-0.0369,-0.032,-0.0192,-0.0194,-0.0177,-0.0236,-0.0202,-0.022,-0.0074,-0.0076,-0.0077,-0.0077,0,-0.1016,-0.1075,-0.1221,-0.1295,-0.1359,-0.1464,-0.1531,-0.1568,-0.1589,-0.1575,-0.157,-0.1448,-0.1363,-0.0948,-0.0756,-0.0404,-0.0323,-0.0221,-0.0204,-0.0255,-0.0215,-0.0231,-0.0246,-0.0085,-0.0085,-0.0084,-0.0083,0,-0.0984,-0.1042,-0.116,-0.1266,-0.1308,-0.1385,-0.148,-0.1525,-0.1529,-0.1552,-0.1556,-0.1485,-0.1303,-0.1125,-0.0839,-0.0679,-0.0437,-0.032,-0.0522,-0.0478,-0.0254,-0.0266,-0.0099,-0.0096,-0.0094,-0.0092,-0.009,0,-0.0948,-0.1029,-0.1117,-0.1172,-0.128,-0.1319,-0.141,-0.1435,-0.1451,-0.147,-0.1432,-0.1413,-0.1249,-0.1115,-0.0919,-0.0656,-0.0668,-0.0434,-0.0376,-0.0518,-0.0528,-0.0439,-0.0441,-0.043,-0.0431,-0.0433,-0.0433,0,-0.0887,-0.1002,-0.1091,-0.1127,-0.1223,-0.1273,-0.1318,-0.1344,-0.1369,-0.1371,-0.1376,-0.1304,-0.1269,-0.1087,-0.0901,-0.0895,-0.0665,-0.0623,-0.043,-0.0426,-0.0446,-0.0446,-0.0435,-0.0435,-0.0435,-0.0436,-0.0436,0,-0.0858,-0.0913,-0.1025,-0.1117,-0.1143,-0.1204,-0.1266,-0.1306,-0.1309,-0.13,-0.1279,-0.1243,-0.1186,-0.1111,-0.0922,-0.097,-0.0814,-0.0711,-0.0701,-0.0588,-0.0532,-0.0542,-0.0585,-0.0587,-0.0589,-0.059,-0.0592,0,-0.0791,-0.0889,-0.0908,-0.1017,-0.1076,-0.1085,-0.1137,-0.1158,-0.1161,-0.1177,-0.1129,-0.1144,-0.1089,-0.1083,-0.1,-0.0899,-0.0806,-0.0882,-0.0611,-0.0604,-0.0551,-0.0569,-0.0762,-0.0616,-0.0613,-0.061,-0.0609,0,-0.0728,-0.08,-0.0814,-0.0862,-0.0909,-0.0941,-0.0995,-0.1033,-0.1056,-0.1056,-0.1079,-0.1082,-0.1036,-0.1017,-0.0972,-0.0891,-0.0838,-0.0811,-0.0803,-0.075,-0.0652,-0.0604,-0.0586,-0.0772,-0.077,-0.0768,-0.0625,0,-0.0687,-0.0739,-0.0764,-0.0822,-0.0847,-0.0888,-0.0903,-0.0925,-0.0923,-0.0918,-0.0943,-0.0911,-0.0893,-0.0894,-0.0865,-0.0844,-0.0801,-0.0752,-0.0656,-0.0707,-0.0641,-0.0629,-0.0733,-0.0731,-0.0728,-0.0727,0,0,-0.0623,-0.0672,-0.0666,-0.071,-0.0733,-0.0715,-0.077,-0.0779,-0.0787,-0.0789,-0.0776,-0.0777,-0.0744,-0.0757,-0.0789,-0.0771,-0.0704,-0.0719,-0.07,-0.0698,-0.0695,-0.0635,-0.0625,-0.0723,-0.0722,-0.0721,-0.072,0,-0.06,-0.0612,-0.0652,-0.0671,-0.0687,-0.0691,-0.0703,-0.0711,-0.0714,-0.0747,-0.0717,-0.0715,-0.0701,-0.068,-0.0667,-0.0741,-0.0629,-0.0737,-0.0773,-0.0684,-0.0686,-0.0686,-0.0627,-0.0621,-0.0715,-0.0715,-0.0715,0,-0.0559,-0.0566,-0.0584,-0.0613,-0.062,-0.066,-0.0615,-0.0635,-0.0666,-0.0594,-0.0629,-0.0614,-0.0574,-0.0595,-0.0594,-0.0543,-0.0531,-0.0558,-0.0568,-0.0552,-0.0454,-0.0457,-0.046,-0.042,-0.042,-0.0419,0,0,-0.0543,-0.057,-0.0581,-0.0609,-0.062,-0.0613,-0.0617,-0.0612,-0.0609,-0.0609,-0.0582,-0.0554,-0.0556,-0.0532,-0.0527,-0.052,-0.0442,-0.0527,-0.054,-0.0552,-0.0543,-0.0449,-0.0453,-0.0417,-0.0417,-0.0417,0,0,-0.0532,-0.0549,-0.0548,-0.0583,-0.0595,-0.0589,-0.0601,-0.059,-0.0591,-0.0585,-0.0533,-0.0523,-0.0548,-0.049,-0.0474,-0.0487,-0.0423,-0.0426,-0.0529,-0.0545,-0.0558,-0.0555,-0.0396,0,0,0,0,0,-0.0519,-0.0548,-0.0548,-0.0553,-0.0572,-0.0593,-0.0593,-0.0579,-0.056,-0.058,-0.0561,-0.0504,-0.0479,-0.0464,-0.0452,-0.0478,-0.0393,-0.0397,-0.0401,-0.0534,-0.0552,-0.0567,0,0,0,0,0,0,-0.052,-0.0528,-0.0546,-0.0543,-0.0546,-0.0591,-0.0556,-0.0553,-0.0558,-0.0556,-0.0513,-0.0502,-0.0464,-0.0464,-0.0455,-0.0481,-0.0399,-0.0394,-0.0398,-0.0401,-0.054,-0.0555,-0.0568,0,0,0,0,0,-0.0522,-0.0528,-0.057,-0.0542,-0.0545,-0.0531,-0.0555,-0.0552,-0.0561,-0.0506,-0.0497,-0.0551,-0.0465,-0.0454,-0.0458,-0.0487,-0.0405,-0.0402,-0.0397,-0.04,-0.0402,-0.0548,0,0,0,0,0,0,-0.0523,-0.0523,-0.0569,-0.0568,-0.0534,-0.0529,-0.0531,-0.0552,-0.0509,-0.0502,-0.054,-0.0538,-0.0466,-0.0458,-0.045,-0.0494,-0.041,-0.0407,-0.0405,-0.0399,-0.0401,-0.0403,0,0,0,0,0,0,-0.0519,-0.0523,-0.0569,-0.056,-0.0558,-0.0527,-0.0529,-0.0499,-0.0507,-0.0545,-0.0543,-0.0539,-0.0458,-0.046,-0.0454,-0.0409,-0.0413,-0.041,-0.0408,-0.0407,-0.0401,-0.0403,0,0,0,0,0,0,-0.052,-0.0523,-0.0561,-0.0559,-0.0557,-0.0547,-0.0496,-0.0507,-0.0537,-0.0546,-0.0534,-0.0534,-0.0459,-0.0454,-0.0457,-0.0415,-0.041,-0.0413,-0.0411,-0.041,-0.0409,0,0,0,0,0,0,0,-0.052,-0.051,-0.0573,-0.0558,-0.0557,-0.0558,-0.0558,-0.0558,-0.0536,-0.0536,-0.0535,-0.0534,-0.0431,-0.0427,-0.0424,-0.042,0,0,-0.0414,-0.0412,0,0,0,0,0,0,0,0,-0.0507,-0.0509,-0.0573,-0.0572,-0.0572,-0.0558,-0.0558,-0.0558,-0.0536,-0.0536,-0.0535,-0.0534,-0.043,-0.0427,-0.0424,0,0,0,0,0,0,0,0,0,0,0,0,0,0,0,-0.0573,-0.0572,0,-0.0558,-0.0558,-0.0558,-0.0536,-0.0536,-0.0535,-0.0534,-0.0429,-0.0427,-0.0425,0,0,0,0,0,0,0,0,0,0,0,0,0,0,0,0,0,0,0,0,0,0,0,0,0,0,0,0,0,0,0,0,0,0,0,0,0,0,0,0,0,0,0,0,0,0,0,0,0,0,0,0,0,0,0,0,0,0,0,0,0,0,0,0,0,0,0,0,0]}]]]